HELLAS-SAT 3

Last updated on Thu Oct 23 2025 00:02:56 GMT+0000 (Coordinated Universal Time)

1 42814U 17040A 25295.27179581 .00000161 00000+0 00000+0 0 9990 2 42814 0.0603 51.6286 0000215 130.3112 345.8651 1.00272249 30425
UTC large
Height (km)
Speed (km/s)
/
Latitude / Longitude
Inclination (degrees)
Orbital Period (minutes)
Azimuth
Elevation
Range (km)
Doppler Factor

Next 0 passes for location: London (51.5072 / 0.1276)

Sorry there are no passes over London.